Regional Weather Roundup
Issued by NWS

Home | Current Version | Previous Version | Graphics & Text | Print | Product List | Glossary On
Versions: 1 2 3 4 5 6 7 8 9 10 11 12 13 14 15 16 17 18 19 20 21 22 23 24 25 26 27 28 29 30 31 32 33 34 35 36 37 38 39 40 41 42 43 44 45 46 47 48 49 50
000
ASUS45 KBOI 290210
RWRID

IDAHO REGIONAL WEATHER ROUNDUP
NATIONAL WEATHER SERVICE BOISE ID
800 PM MDT SUN MAY 28 2017

NOTE: "FAIR" INDICATES FEW OR NO CLOUDS BELOW 12000 FEET
WITH NO SIGNIFICANT WEATHER AND/OR OBSTRUCTIONS TO VISIBILITY

IDZ012-014-290300-
SOUTHWEST IDAHO


CITY           SKY/WX    TMP DP  RH WIND       PRES   REMARKS
BOISE          SUNNY     82  36  19 N8        30.07F
CALDWELL       SUNNY     81  37  20 NW7       30.06F HAZE
MOUNTAIN HOME  SUNNY     82  31  16 E7        30.07F
$$

IDZ016-017-290300-
SOUTHCENTRAL IDAHO


CITY           SKY/WX    TMP DP  RH WIND       PRES   REMARKS
BURLEY         CLEAR     73  38  27 NE5       30.14F
JEROME         SUNNY     74  32  21 SE5       30.15F
TWIN FALLS     SUNNY     72  46  39 E3        30.15F
$$

IDZ019>023-290300-
SOUTHEAST IDAHO


CITY           SKY/WX    TMP DP  RH WIND       PRES   REMARKS
IDAHO FALLS    CLEAR     73  38  27 NE5       30.18F
POCATELLO      PTCLDY    72  41  32 NW3       30.18F
REXBURG        PTCLDY    71  32  23 VRB3      30.19S
$$

IDZ006-010-011-018-031-032-290300-
CENTRAL IDAHO MOUNTAINS


CITY           SKY/WX    TMP DP  RH WIND       PRES   REMARKS
MCCALL         SUNNY     71  30  21 W7        30.18F
HAILEY         MOSUNNY   66  48  52 SE6       30.22S
STANLEY          N/A     68  29  23 W6        30.27S
SALMON         SUNNY     72  41  33 CALM      30.10R
CHALLIS        SUNNY     72  33  24 N3        30.17S
$$

IDZ002-004-006-007-026-290300-
NORTHERN IDAHO


CITY           SKY/WX    TMP DP  RH WIND       PRES   REMARKS
LEWISTON       SUNNY     87  43  21 W3        30.01F
LOWELL           N/A     69  50  50 CALM      30.02S
COEUR D`ALENE  SUNNY     82  47  29 W5        30.07F
MULLAN PASS    CLOUDY    61  34  36 NW3       30.27F
$$



USA.gov is the U.S. government's official web portal to all federal, state and local government web resources and services.